User: anonymous
Location: Montr�al
(45.5000°N, 73.5830°W)
Time: 00:23:18
(UTC-04:00)
Language:

Cosmos 2369 - Orbit

View from above orbital plane
View from above orbital plane
View from above satellite
View from above satellite

Ground track
Ground track

The orbit data is extracted from the following two-line orbital elements,

1 26069U 00006A   14274.50665432  .00000127  00000-0  93235-4 0  3651
2 26069 070.9920 272.1823 0013141 285.6658 202.9677 14.13234322756294
Epoch (UTC): 01 October 2014 12:09:34
Eccentricity: 0.0013141
inclination: 70.9920°
perigee height: 839 km
apogee height: 858 km
right ascension of ascending node: 272.1823°
argument of perigee: 285.6658°
revolutions per day: 14.13234322
mean anomaly at epoch: 202.9677°
orbit number at epoch: 75629

The dashed part of the orbit path shows where the satellite is in the earth's shadow,  

DLR